This is the latest recevied weather packets stored in our database for station/object KC5DP. If no packets are shown the sender has not sent any weather packets the latest 10 day(s).
| Time | Temp. | Humidity | Pressure | Rain* | Wind** | Luminosity | Snow |
|---|---|---|---|---|---|---|---|
| 1777709388 | 11.67° C | 99% | 1012.9 hPa | 1.27 mm | - | 0 W/m² | - |
| 1777709086 | 11.67° C | 99% | 1012.6 hPa | 1.27 mm | - | 0 W/m² | - |
| 1777708783 | 11.67° C | 99% | 1012.6 hPa | 0 mm | - | 0 W/m² | - |
| 1777708480 | 11.67° C | 99% | 1012.7 hPa | 0 mm | - | 0 W/m² | - |
| 1777708178 | 11.67° C | 99% | 1012.9 hPa | 1.78 mm | - | 0 W/m² | - |
| 1777707571 | 11.11° C | 99% | 1013 hPa | 0 mm | - | 0 W/m² | - |
| 1777707268 | 11.11° C | 99% | 1012.8 hPa | 0 mm | - | 0 W/m² | - |
| 1777706966 | 11.11° C | 99% | 1013 hPa | 0 mm | - | 0 W/m² | - |
| 1777706662 | 11.11° C | 99% | 1012.8 hPa | 0 mm | - | 0 W/m² | - |
| 1777706360 | 11.11° C | 99% | 1012.4 hPa | 0 mm | - | 0 W/m² | - |
| 1777706058 | 11.11° C | 99% | 1012.3 hPa | 0 mm | - | 0 W/m² | - |
| 1777705756 | 11.11° C | 99% | 1012.2 hPa | 1.27 mm | - | 0 W/m² | - |
| 1777705454 | 11.11° C | 99% | 1012.7 hPa | 3.05 mm | - | 0 W/m² | - |
| 1777705152 | 11.11° C | 99% | 1012.5 hPa | 3.05 mm | - | 0 W/m² | - |
| 1777704850 | 11.11° C | 99% | 1012.6 hPa | 1.27 mm | - | 0 W/m² | - |
| 1777704548 | 11.11° C | 99% | 1013 hPa | 0 mm | - | 0 W/m² | - |
| 1777704245 | 11.11° C | 99% | 1013.4 hPa | 0 mm | - | 0 W/m² | - |
| 1777703942 | 11.11° C | 99% | 1013.5 hPa | 1.78 mm | - | 0 W/m² | - |
| 1777703640 | 11.11° C | 99% | 1012.9 hPa | 3.05 mm | - | 0 W/m² | - |
| 1777703337 | 11.11° C | 99% | 1013.1 hPa | 3.05 mm | - | 0 W/m² | - |
| 1777703035 | 11.11° C | 99% | 1013.6 hPa | 6.1 mm | - | 0 W/m² | - |
| 1777702734 | 11.11° C | 99% | 1013.5 hPa | 7.87 mm | - | 0 W/m² | - |
| 1777702431 | 11.11° C | 99% | 1013.4 hPa | 6.6 mm | - | 0 W/m² | - |
| 1777702126 | 11.11° C | 99% | 1013.8 hPa | 4.32 mm | - | 0 W/m² | - |
| 1777701822 | 11.11° C | 99% | 1013.8 hPa | 4.32 mm | - | 0 W/m² | - |
* Rain latest hour (hover to see other rain measurements)
** Current wind speed in m/s (hover to see current wind gust speed)